Tracking 29892 objects as of 21-Nov-2024
HD Live streaming from Space Station
objects crossing your sky now

STARLINK-3160

Track STARLINK-3160 now!
10-day predictions
STARLINK-3160 is classified as:


NORAD ID: 49454
Int'l Code: 2021-104AY
Perigee: 545.9 km
Apogee: 547.9 km
Inclination: 53.2 °
Period: 95.4 minutes
Semi major axis: 6917 km
RCS: Unknown
Launch date: November 13, 2021
Source: United States (US)
Launch site: AIR FORCE EASTERN TEST RANGE (AFETR)
Your satellite tracking list
Your tracking list is empty




NASA's NSSDC Master Catalog

Two Line Element Set (TLE):
1 49454U 21104AY  24324.86722351  .00000678  00000-0  60722-4 0  9995
2 49454  53.2164 190.6791 0001460  94.0033 266.1126 15.08832222167092
Source of the keplerian elements: AFSPC